Regional Weather Roundup
Issued by NWS Grand Forks, ND

Home | Current Version | Previous Version | Graphics & Text | Print | Product List | Glossary On
Versions: 1 2 3 4 5 6 7 8 9 10 11 12 13 14 15 16 17 18 19 20 21 22 23 24 25 26 27 28 29 30 31 32 33 34 35 36 37 38 39 40 41 42 43 44 45 46 47 48 49 50
000
ASUS43 KFGF 251831
RWRFGF
PRAIRIE TO PINES  WEATHER ROUNDUP
NATIONAL WEATHER SERVICE EASTERN NORTH DAKOTA/GRAND FORKS ND
100 PM CDT MON SEP 25 2017

 **SATELLITE DATA USED TO AUGMENT SKY COVER AT AUTOMATED STATIONS**
 *****  WEATHER ACROSS EASTERN NORTH DAKOTA  *****

CITY           SKY/WX    TMP DP  RH WIND       PRES   REMARKS
GRAND FORKS    CLOUDY    51  47  86 N12       30.14R
6HR MIN TEMP:  49; 6HR MAX TEMP:  52;

GRAND FRKS AFB CLOUDY    51  44  78 N9        30.14S
DEVILS LAKE    CLOUDY    49  41  74 NE10      30.16S
6HR MIN TEMP:  46; 6HR MAX TEMP:  49;

FARGO          CLOUDY    52  47  83 N13       30.10S
WAHPETON ARPT  CLOUDY    52  45  76 N10       30.10R
$$

 ***** WEATHER ACROSS CENTRAL AND WESTERN NORTH DAKOTA  *****

CITY           SKY/WX    TMP DP  RH WIND       PRES   REMARKS
BISMARCK       CLOUDY    53  44  71 CALM      30.15F
6HR MIN TEMP:  48; 6HR MAX TEMP:  53;

MINOT          CLOUDY    52  43  71 CALM      30.15F
6HR MIN TEMP:  47; 6HR MAX TEMP:  53;

JAMESTOWN      CLOUDY    50  42  74 N13       30.13S
6HR MIN TEMP:  48; 6HR MAX TEMP:  50; 6HR PCP: TRACE;

MINOT AFB      CLOUDY    52  43  71 CALM      30.15S
GARRISON         N/A     51  43  74 CALM      30.15F
WILLISTON      CLOUDY    52  43  71 SE5       30.15F
6HR MIN TEMP:  45; 6HR MAX TEMP:  51; 6HR PCP: TRACE;

DICKINSON      CLOUDY    46  42  86 W6        30.14S
6HR MIN TEMP:  43; 6HR MAX TEMP:  46; 6HR PCP: TRACE;

HETTINGER      LGT RAIN  44  40  85 S5        30.16F
6HR MIN TEMP:  42; 6HR MAX TEMP:  44;

$$

 *****  OTHER AIRPORT OBSERVATIONS IN OUR AREA  *****

CITY           SKY/WX    TMP DP  RH WIND       PRES   REMARKS
WALHALLA       FAIR     N/A N/A N/A N17       30.15F
GRAFTON AIRPOR NOT AVBL
VALLEY CITY AR NOT AVBL
CANDO          CLOUDY    54  43  66 N13       30.17F
CAVALIER APRT  CLOUDY    54  45  71 N12G17    30.14F
GWINNER        CLOUDY    52  46  82 N10       30.11S
SHEYENNE NWR     N/A     51  47  87 NE10      29.95S
ROLLA          CLOUDY    50  41  71 N8        30.16F
 ***** THE ABOVE OBSERVATIONS ARE NON NWS ARE NOT QUALITY
       CONTROLLED AND MAY MIS-REPORT RAIN FOR SNOW...
$$

  *****  WEATHER ACROSS NORTHERN MINNESOTA  *****

CITY           SKY/WX    TMP DP  RH WIND       PRES   REMARKS
FLAG ISLAND    PTSUNNY   54  46  76 N9        30.09S
WARROAD        NOT AVBL
ROSEAU         CLOUDY    54  48  82 N7        30.11S
HALLOCK          N/A     52  46  82 N13G18    30.13F
THF RVR FALLS  CLOUDY    52  46  82 N10       30.12S
6HR MIN TEMP:  47; 6HR MAX TEMP:  52; 6HR PCP: TRACE;

BAUDETTE       CLOUDY    53  50  89 N7        30.09R
6HR MIN TEMP:  48; 6HR MAX TEMP:  54; 6HR PCP:  0.03;

WASKISH        CLOUDY    55  50  82 N5        30.07S
CROOKSTON      CLOUDY    54  46  76 NE9       30.13R
STEPHEN NDAWN    N/A     52  46  82 N10         N/A
GREENBUSH NDAW   N/A     54  46  76 N8          N/A
$$
  *****  WEATHER ACROSS CENTRAL AND WEST MINNESOTA  *****

CITY           SKY/WX    TMP DP  RH WIND       PRES   REMARKS
FOSSTON        CLOUDY    52  48  87 N8        30.10S
BEMIDJI        CLOUDY    53  49  86 NW8       30.07S
6HR MIN TEMP:  47; 6HR MAX TEMP:  53;

PARK RAPIDS    CLOUDY    54  47  77 N8        30.07S
6HR MIN TEMP:  50; 6HR MAX TEMP:  54;

ELBOW LAKE     CLOUDY    54  49  81 E7        30.07S
WADENA         CLOUDY    54  48  82 N7        30.06S
DETROIT LAKES  CLOUDY    52  46  82 CALM      30.08F
MOORHEAD       CLOUDY    52  46  82 N8        30.10S
FERGUS FALLS   CLOUDY    54  46  76 N7        30.08R
MORRIS MN      CLOUDY    55  50  82 N6        30.06
STAPLES        CLOUDY    55  48  76 N6        30.06S
$$
  *****  WEATHER ELSEWHERE ACROSS MINNESOTA  *****

CITY           SKY/WX    TMP DP  RH WIND       PRES   REMARKS
DULUTH         CLOUDY    56  53  90 NW6       30.01F
6HR MIN TEMP:  52; 6HR MAX TEMP:  56; 6HR PCP:  0.02;

INTRNTL FALLS  CLOUDY    55  48  77 N9        30.05F
6HR MIN TEMP:  49; 6HR MAX TEMP:  55; 6HR PCP: TRACE;

ELY            LGT RAIN  55  54  94 CALM      30.03R
CLOQUET        LGT RAIN  55  52  88 N3        30.01F
WHEATON        CLOUDY    54  46  76 N9        30.10S
BRAINERD       CLOUDY    55  51  86 N7        30.06R
6HR MIN TEMP:  50; 6HR MAX TEMP:  55; 6HR PCP:  0.12;

HIBBING        LGT RAIN  53  50  89 N6        30.03S
6HR MIN TEMP:  48; 6HR MAX TEMP:  53; 6HR PCP:  0.02;

ALEXANDRIA     CLOUDY    56  49  77 N5        30.07S
6HR MIN TEMP:  51; 6HR MAX TEMP:  56; 6HR PCP:  0.01;

SAINT CLOUD    CLOUDY    57  54  89 NW10      30.03R
6HR MIN TEMP:  52; 6HR MAX TEMP:  57; 6HR PCP:  0.04;

MINNEAPOLIS    CLOUDY    62  59  90 NW7       29.99S
6HR MIN TEMP:  59; 6HR MAX TEMP:  62; 6HR PCP: TRACE;

$$

  *****  WEATHER ACROSS SOUTH DAKOTA  *****

CITY           SKY/WX    TMP DP  RH WIND       PRES   REMARKS
SIOUX FALLS    CLOUDY    55  53  93 N14       30.04S
6HR MIN TEMP:  53; 6HR MAX TEMP:  56; 6HR PCP: TRACE;

BROOKINGS      CLOUDY    52  48  86 NE10      30.06F
WATERTOWN      CLOUDY    52  48  86 NE12G20   30.05F
6HR MIN TEMP:  48; 6HR MAX TEMP:  52;

HURON          CLOUDY    52  48  86 N8        30.09S
6HR MIN TEMP:  50; 6HR MAX TEMP:  53; 6HR PCP: TRACE;

SISSETON         N/A     54  48  80 N12G17    30.08S
ABERDEEN       CLOUDY    53  47  79 N10       30.11R
6HR MIN TEMP:  49; 6HR MAX TEMP:  53;

MITCHELL       LGT RAIN  53  50  89 N10       30.07F
PIERRE         CLOUDY    52  42  69 N7        30.11F
6HR MIN TEMP:  46; 6HR MAX TEMP:  54;

MOBRIDGE       CLOUDY    53  44  71 NE7       30.12R
RAPID CITY     CLOUDY    50  43  76 SE5       30.12F
$$

  *****  SOME WEATHER IN NEARBY STATES *****

CITY           SKY/WX    TMP DP  RH WIND       PRES   REMARKS
GLASGOW MT     CLOUDY    55  39  54 SE15      30.10F
6HR MIN TEMP:  38; 6HR MAX TEMP:  55;

GREAT FALLS MT FAIR      57  34  41 SW6       30.03F
6HR MIN TEMP:  38; 6HR MAX TEMP:  57;

CHEYENNE WY    CLOUDY    46  37  71 E6        30.11F
6HR MIN TEMP:  37; 6HR MAX TEMP:  48;

SCOTTSBLUFF NE CLOUDY    49  41  74 CALM      30.11F
6HR MIN TEMP:  43; 6HR MAX TEMP:  50;

OMAHA NE       LGT RAIN  66  63  90 N6        29.93F
6HR MIN TEMP:  59; 6HR MAX TEMP:  67; 6HR PCP:  0.39;

DES MOINES IA  FAIR      84  67  56 CALM      29.90F
6HR MIN TEMP:  67; 6HR MAX TEMP:  86;

DAVENPORT IA   FAIR      86  67  52 S7        29.97F
6HR MIN TEMP:  63; 6HR MAX TEMP:  86;

CHICAGO IL     FAIR      90  56  31 VRB5      29.97F
6HR MIN TEMP:  67; 6HR MAX TEMP:  90;

EAU CLAIRE WI  FAIR      80  65  59 MISG      29.92F
6HR MIN TEMP:  63; 6HR MAX TEMP:  81;

LA CROSSE WI   FAIR      86  66  51 SE7       29.91F
6HR MIN TEMP:  67; 6HR MAX TEMP:  86;

$$

  *****  SOME NATIONAL WEATHER *****

CITY           SKY/WX    TMP DP  RH WIND       PRES   REMARKS
LA GUARDIA NY  FAIR      83  68  60 NE9       30.03F
6HR MIN TEMP:  73; 6HR MAX TEMP:  84;

RALEIGH NC     PTSUNNY   81  66  60 NE10      29.98F
6HR MIN TEMP:  66; 6HR MAX TEMP:  82;

ATLANTA GA     FAIR      84  60  44 VRB6      30.02F
6HR MIN TEMP:  72; 6HR MAX TEMP:  85;

NEW ORLEANS LA PTSUNNY   84  71  65 NE10G20   29.90F
6HR MIN TEMP:  76; 6HR MAX TEMP:  84;

OKLAHOMA CITY  PTSUNNY   81  65  58 S15       29.90F
6HR MIN TEMP:  68; 6HR MAX TEMP:  84;

ALBUQUERQUE NM FAIR      66  23  19 NW7       29.99F
6HR MIN TEMP:  52; 6HR MAX TEMP:  67;

SALT LAKE CITY FAIR      54  38  54 CALM      30.13F
6HR MIN TEMP:  42; 6HR MAX TEMP:  55;

LOS ANGELES CA FAIR      82  32  16 VRB3      29.86S
6HR MIN TEMP:  60; 6HR MAX TEMP:  82;

BOISE ID       FAIR



USA.gov is the U.S. government's official web portal to all federal, state and local government web resources and services.